K9BM Weather Reports


time (UTC)temp
F
wind
direction
speed
knots
gust
knots
rain 1hr
in
rain 24hr
in
rain mn
in
humidity
%
barometer
mb
20260508210004 68 276 10.4 15.6 0.00 0.02 0.00 25 1007.6
20260508205505 68 296 12.2 14.8 0.00 0.02 0.00 24 1007.7
20260508205005 68 276 9.6 13.0 0.00 0.02 0.00 31 1007.8
20260508204505 67 256 7.0 13.9 0.00 0.02 0.00 31 1007.9
20260508203505 67 294 10.4 15.6 0.00 0.02 0.00 31 1008.1
20260508203005 66 251 8.7 17.4 0.00 0.02 0.00 33 1008.1
20260508202505 65 237 8.7 17.4 0.00 0.02 0.00 32 1008.2
20260508202005 65 306 11.3 15.6 0.00 0.02 0.00 28 1008.2
20260508201505 65 273 6.1 17.4 0.00 0.02 0.00 31 1008.3
20260508201006 65 238 7.8 17.4 0.00 0.02 0.00 31 1008.4
20260508200005 65 264 12.2 18.2 0.00 0.02 0.00 33 1008.3
20260508195505 64 253 12.2 19.1 0.00 0.02 0.00 32 1008.3
20260508195005 64 268 10.4 19.1 0.00 0.02 0.00 33 1008.3
20260508194505 64 279 13.9 18.2 0.00 0.02 0.00 34 1008.4
20260508193505 65 276 8.7 17.4 0.00 0.02 0.00 37 1008.4
20260508193006 65 271 13.0 17.4 0.00 0.02 0.00 34 1008.5
20260508192505 66 282 11.3 15.6 0.00 0.02 0.00 35 1008.5
20260508191505 65 299 10.4 17.4 0.00 0.02 0.00 37 1008.6
20260508191005 65 256 11.3 17.4 0.00 0.02 0.00 38 1008.6
20260508190005 64 281 8.7 14.8 0.00 0.02 0.00 38 1008.7
20260508185505 64 277 9.6 17.4 0.00 0.02 0.00 38 1008.8
20260508185005 64 275 13.0 17.4 0.00 0.02 0.00 37 1008.9
20260508184005 64 261 11.3 20.9 0.00 0.02 0.00 37 1008.9
20260508183005 64 286 13.0 20.0 0.00 0.02 0.00 41 1009.1
20260508182505 64 286 12.2 18.2 0.00 0.02 0.00 39 1009.1
20260508182005 64 277 10.4 18.2 0.00 0.02 0.00 42 1009.2
20260508181505 64 286 10.4 14.8 0.00 0.02 0.00 42 1009.2
20260508181005 64 282 11.3 15.6 0.00 0.02 0.00 41 1009.3
20260508180005 64 271 11.3 21.7 0.00 0.02 0.00 42 1009.4
20260508175505 64 276 11.3 21.7 0.00 0.02 0.00 41 1009.6
20260508174505 64 284 12.2 20.9 0.00 0.02 0.00 42 1009.8
20260508173505 63 272 11.3 17.4 0.00 0.02 0.00 42 1010.0
20260508173005 64 282 12.2 17.4 0.00 0.02 0.00 40 1010.1
20260508172505 63 289 13.9 17.4 0.00 0.02 0.00 42 1010.1
20260508172005 63 279 13.0 19.1 0.00 0.02 0.00 43 1010.2
20260508171504 63 286 10.4 19.1 0.00 0.02 0.00 45 1010.2
20260508171005 63 285 11.3 19.1 0.00 0.02 0.00 44 1010.1
20260508170005 62 279 11.3 17.4 0.00 0.02 0.00 45 1010.1
20260508165505 62 285 11.3 14.8 0.00 0.02 0.00 45 1010.2
20260508164505 61 257 11.3 15.6 0.00 0.02 0.00 48 1010.3
20260508164005 61 255 10.4 14.8 0.00 0.02 0.00 49 1010.3
20260508163505 61 258 10.4 14.8 0.00 0.02 0.00 50 1010.4
20260508163005 60 286 10.4 13.9 0.00 0.02 0.00 51 1010.3
20260508162504 60 272 11.3 15.6 0.00 0.02 0.00 52 1010.4
20260508161505 59 263 9.6 17.4 0.00 0.02 0.00 53 1010.4
20260508161005 60 252 12.2 17.4 0.00 0.02 0.00 52 1010.3
20260508160005 59 261 10.4 14.8 0.00 0.02 0.00 55 1010.4
20260508155505 59 250 9.6 13.9 0.00 0.02 0.00 55 1010.4
20260508155005 58 268 10.4 13.9 0.00 0.02 0.00 55 1010.5
20260508154505 58 270 8.7 12.2 0.00 0.02 0.00 55 1010.6
20260508153505 57 245 4.3 7.8 0.00 0.02 0.00 57 1010.7
20260508153004 57 262 3.5 7.0 0.00 0.02 0.00 58 1010.8
20260508152504 56 241 2.6 7.0 0.00 0.02 0.00 59 1010.9
20260508152004 56 254 4.3 7.0 0.00 0.02 0.00 62 1010.9
20260508151505 55 265 2.6 7.8 0.00 0.02 0.00 61 1011.0
20260508151004 55 267 5.2 10.4 0.00 0.02 0.00 61 1011.1
20260508150005 54 268 7.8 10.4 0.00 0.02 0.00 61 1011.2
20260508145505 54 254 7.8 10.4 0.00 0.02 0.00 59 1011.3
20260508145005 53 240 5.2 7.8 0.00 0.02 0.00 60 1011.4
20260508144504 53 252 5.2 7.8 0.00 0.02 0.00 62 1011.4
20260508144005 53 271 5.2 8.7 0.00 0.02 0.00 64 1011.4
20260508143505 53 265 6.1 10.4 0.00 0.02 0.00 64 1011.4
20260508142505 52 251 6.1 10.4 0.00 0.02 0.00 64 1011.5
20260508142005 51 241 6.1 8.7 0.00 0.02 0.00 65 1011.5
20260508141005 49 230 5.2 7.8 0.00 0.02 0.00 69 1011.6
20260508135508 49 212 5.2 8.7 0.00 0.02 0.00 68 1011.6
20260508135005 49 227 6.1 10.4 0.00 0.02 0.00 68 1011.7
20260508134505 49 233 5.2 10.4 0.00 0.02 0.00 68 1011.6
20260508134005 48 232 6.1 8.7 0.00 0.02 0.00 69 1011.7
20260508133005 48 218 5.2 7.8 0.00 0.02 0.00 69 1011.6
20260508132504 48 225 5.2 7.8 0.00 0.02 0.00 69 1011.6
20260508132005 49 213 5.2 7.8 0.00 0.02 0.00 68 1011.7
20260508131005 49 231 4.3 7.8 0.00 0.02 0.00 67 1011.6
20260508130005 50 228 5.2 10.4 0.00 0.02 0.00 67 1011.5
20260508125505 49 225 6.1 10.4 0.00 0.02 0.00 67 1011.4
20260508124504 48 228 6.1 10.4 0.00 0.02 0.00 69 1011.3
20260508124004 48 226 5.2 8.7 0.00 0.02 0.00 70 1011.3
20260508123505 48 224 6.1 10.4 0.00 0.02 0.00 70 1011.3
20260508122505 47 222 6.1 10.4 0.00 0.02 0.00 71 1011.2
20260508122005 47 200 7.8 10.4 0.00 0.02 0.00 72 1011.1
20260508121505 47 199 6.1 12.2 0.00 0.02 0.00 72 1011.1
20260508120005 48 212 5.2 10.4 0.00 0.02 0.00 71 1011.2
20260508115504 48 222 5.2 11.3 0.00 0.02 0.00 71 1011.2
20260508115005 47 204 7.8 11.3 0.00 0.02 0.00 72 1011.1
20260508114504 47 208 6.1 10.4 0.00 0.02 0.00 73 1011.1
20260508114005 47 206 6.1 11.3 0.00 0.02 0.00 74 1011.0
20260508113504 47 211 7.0 11.3 0.00 0.02 0.00 74 1011.1
20260508113005 47 204 8.7 11.3 0.00 0.02 0.00 74 1011.0
20260508112504 47 206 7.0 11.3 0.00 0.02 0.00 74 1011.1
20260508112004 47 205 7.0 11.3 0.00 0.02 0.00 74 1011.0
20260508111505 47 208 6.1 11.3 0.00 0.02 0.00 74 1011.1
20260508110004 47 226 4.3 7.8 0.00 0.02 0.00 74 1011.1
20260508105504 47 237 5.2 7.8 0.00 0.02 0.00 73 1011.2
20260508104005 47 244 6.1 10.4 0.00 0.02 0.00 73 1011.2
20260508103505 47 236 7.0 11.3 0.00 0.02 0.00 72 1011.2
20260508103005 47 241 7.8 11.3 0.00 0.02 0.00 73 1011.2
20260508102504 47 233 8.7 11.3 0.00 0.02 0.00 73 1011.1
20260508102005 46 233 7.0 10.4 0.00 0.02 0.00 74 1011.0
20260508101504 46 233 7.0 10.4 0.00 0.02 0.00 75 1010.9
20260508101005 46 227 6.1 10.4 0.00 0.02 0.00 76 1010.9
20260508100004 44 233 6.1 7.8 0.00 0.02 0.00 78 1010.9
20260508095504 45 234 4.3 6.1 0.00 0.02 0.00 78 1010.9
20260508095005 45 233 4.3 7.8 0.00 0.02 0.00 77 1010.9
20260508094505 46 231 4.3 7.8 0.00 0.02 0.00 76 1010.9
20260508094005 46 242 5.2 8.7 0.00 0.02 0.00 75 1010.9
20260508093504 46 231 6.1 8.7 0.00 0.02 0.00 75 1010.8
20260508093004 46 242 6.1 10.4 0.00 0.02 0.00 75 1010.8
20260508092504 47 235 5.2 10.4 0.00 0.02 0.00 75 1010.8
20260508092004 47 238 6.1 10.4 0.00 0.02 0.00 74 1010.9
20260508091005 47 237 7.8 10.4 0.00 0.02 0.00 74 1010.8
20260508090005 47 234 7.8 10.4 0.00 0.02 0.00 74 1010.8
20260508085504 47 238 6.1 8.7 0.00 0.02 0.00 75 1010.8
20260508085005 47 238 5.2 8.7 0.00 0.02 0.00 75 1010.8
20260508084505 47 230 5.2 8.7 0.00 0.02 0.00 75 1010.7
20260508083005 46 238 5.2 10.4 0.00 0.02 0.00 76 1010.8
20260508081504 46 233 4.3 10.4 0.00 0.02 0.00 78 1010.7
20260508075004 47 221 4.3 10.4 0.00 0.02 0.00 78 1011.0
20260508074504 47 237 7.0 10.4 0.00 0.02 0.00 78 1011.1
20260508073004 47 235 6.1 10.4 0.00 0.02 0.00 79 1011.0
20260508072504 47 245 6.1 10.4 0.00 0.02 0.00 79 1011.1
20260508072004 47 242 7.8 10.4 0.00 0.03 0.00 80 1011.1
20260508071504 47 236 7.0 10.4 0.00 0.03 0.00 80 1011.1
20260508070005 46 239 6.1 10.4 0.00 0.04 0.00 81 1011.1
20260508065004 46 242 6.1 8.7 0.00 0.05 0.00 82 1011.1
20260508064504 46 223 4.3 6.1 0.00 0.06 0.00 82 1011.1
20260508064004 46 234 4.3 6.1 0.00 0.08 0.00 82 1011.1
20260508063504 46 225 4.3 7.0 0.00 0.08 0.00 82 1011.1
20260508062505 47 239 5.2 7.0 0.00 0.08 0.00 82 1011.1
20260508062004 47 251 5.2 8.7 0.00 0.08 0.00 82 1011.0
20260508061504 47 250 5.2 8.7 0.00 0.08 0.00 83 1011.0
20260508061005 46 235 5.2 7.0 0.00 0.08 0.00 84 1010.9
20260508060005 46 255 5.2 7.0 0.00 0.08 0.00 84 1011.0
20260508055504 46 242 5.2 7.0 0.00 0.08 0.08 84 1010.9
20260508055004 46 244 5.2 7.8 0.00 0.08 0.08 84 1010.9
20260508054004 46 247 6.1 10.4 0.00 0.08 0.08 84 1010.9
20260508053504 46 245 5.2 10.4 0.00 0.08 0.08 84 1010.9
20260508053004 46 245 6.1 8.7 0.00 0.08 0.08 85 1010.8
20260508052004 47 240 5.2 8.7 0.00 0.08 0.08 83 1011.0
20260508051504 47 235 6.1 10.4 0.00 0.08 0.08 84 1011.0
20260508051004 47 267 7.8 10.4 0.00 0.08 0.08 85 1010.9
20260508050004 46 249 4.3 6.1 0.00 0.08 0.08 86 1011.0
20260508045504 46 233 5.2 6.1 0.00 0.08 0.08 86 1011.0
20260508044005 46 241 4.3 5.2 0.00 0.08 0.08 86 1011.0
20260508043005 47 238 2.6 4.3 0.00 0.08 0.08 85 1011.0
20260508042504 47 245 2.6 4.3 0.00 0.08 0.08 85 1011.0
20260508041504 47 255 2.6 4.3 0.00 0.08 0.08 84 1011.0
20260508040004 47 240 4.3 5.2 0.00 0.08 0.08 84 1011.0
20260508035504 47 243 4.3 5.2 0.00 0.08 0.08 85 1010.9
20260508034505 48 261 4.3 5.2 0.00 0.08 0.08 84 1010.7
20260508034005 48 230 3.5 7.0 0.00 0.08 0.08 83 1010.7
20260508033504 48 204 5.2 7.0 0.00 0.08 0.08 82 1010.6
20260508033005 49 203 3.5 7.8 0.00 0.08 0.08 82 1010.6
20260508032005 49 197 5.2 8.7 0.00 0.08 0.08 82 1010.4
20260508031504 49 192 6.1 7.8 0.00 0.08 0.08 82 1010.3
20260508031004 49 193 6.1 7.8 0.00 0.08 0.08 81 1010.2
20260508025004 50 203 2.6 6.1 0.00 0.08 0.08 80 1010.0
20260508024504 50 203 1.7 7.8 0.00 0.08 0.08 80 1009.9
20260508024005 50 202 5.2 7.8 0.01 0.08 0.08 80 1009.7
20260508023505 50 201 2.6 5.2 0.01 0.08 0.08 80 1009.6
20260508023005 50 181 2.6 5.2 0.01 0.08 0.08 80 1009.6
20260508022504 50 163 4.3 7.8 0.01 0.08 0.08 81 1009.5
20260508022004 50 162 4.3 10.4 0.01 0.08 0.08 81 1009.4
20260508021504 51 167 7.0 10.4 0.01 0.08 0.08 80 1009.3
20260508020004 51 177 6.1 10.4 0.01 0.08 0.08 81 1009.3
20260508015504 51 179 7.8 10.4 0.01 0.08 0.08 81 1009.3
20260508015004 51 138 4.3 8.7 0.01 0.08 0.08 82 1009.1
20260508014504 51 164 5.2 8.7 0.01 0.08 0.08 81 1009.4
20260508014004 51 169 6.1 7.8 0.00 0.07 0.07 79 1009.3
20260508013004 51 175 6.1 10.4 0.00 0.07 0.07 78 1009.1
20260508012504 51 166 7.8 10.4 0.00 0.07 0.07 79 1008.8
20260508012004 51 156 6.1 10.4 0.00 0.07 0.07 78 1008.6
20260508011504 51 144 6.1 10.4 0.01 0.07 0.07 77 1008.8
20260508011004 51 143 7.8 10.4 0.01 0.07 0.07 77 1008.6
20260508010004 51 94 5.2 10.4 0.01 0.07 0.07 79 1008.8
20260508005504 51 104 6.1 10.4 0.01 0.07 0.07 80 1008.7
20260508005004 51 90 7.0 10.4 0.01 0.07 0.07 80 1008.5
20260508004504 51 87 7.8 10.4 0.01 0.07 0.07 82 1008.3
20260508003504 50 89 7.8 11.3 0.01 0.07 0.07 83 1008.1
20260508002504 51 44 7.8 15.6 0.01 0.07 0.07 79 1009.0
20260508002004 52 24 11.3 15.6 0.01 0.07 0.07 78 1009.0
20260508001504 53 15 10.4 17.4 0.00 0.06 0.06 74 1009.1
20260508001004 54 17 10.4 17.4 0.00 0.06 0.06 69 1008.9
20260508000004 56 32 12.2 18.2 0.00 0.06 0.06 61 1008.6
20260507235504 57 24 8.7 11.3 0.00 0.06 0.06 56 1008.4
20260507235004 58 26 8.7 11.3 0.00 0.06 0.06 54 1008.0
20260507234504 58 30 7.8 11.3 0.00 0.06 0.06 52 1007.8
20260507234005 59 42 5.2 10.4 0.00 0.06 0.06 50 1007.7
20260507233505 60 35 7.0 10.4 0.00 0.06 0.06 48 1007.6
20260507233005 60 34 6.1 8.7 0.00 0.06 0.06 46 1007.4
20260507231505 61 116 0.0 0.0 0.00 0.06 0.06 46 1007.4
20260507231005 60 134 0.0 0.0 0.00 0.06 0.06 45 1007.4
20260507230005 60 135 0.9 2.6 0.00 0.06 0.06 49 1007.3
20260507225505 59 131 1.7 2.6 0.00 0.06 0.06 52 1007.3
20260507225005 58 128 1.7 2.6 0.00 0.06 0.06 54 1007.3
20260507224505 58 103 1.7 2.6 0.00 0.06 0.06 53 1007.4
20260507224005 57 60 0.9 2.6 0.00 0.06 0.06 55 1007.5
20260507223505 57 28 0.0 2.6 0.00 0.06 0.06 56 1007.4
20260507223005 56 29 0.9 2.6 0.00 0.06 0.06 56 1007.4
20260507222505 56 28 1.7 4.3 0.00 0.06 0.06 58 1007.4
20260507222005 55 26 2.6 7.8 0.00 0.06 0.06 59 1007.5
20260507221505 55 29 4.3 7.8 0.00 0.06 0.06 59 1007.5
20260507221005 55 17 4.3 8.7 0.00 0.06 0.06 61 1007.6
20260507220005 55 27 4.3 12.2 0.00 0.06 0.06 65 1007.6
20260507215505 55 21 6.1 18.2 0.00 0.06 0.06 63 1007.6
20260507214505 56 346 15.6 20.0 0.00 0.06 0.06 56 1007.8
20260507214005 57 358 6.1 15.6 0.00 0.06 0.06 57 1007.7
20260507213005 57 11 10.4 20.0 0.00 0.06 0.06 56 1007.9
20260507212505 59 12 12.2 20.0 0.00 0.06 0.06 51 1007.6
20260507212005 62 22 10.4 20.0 0.00 0.06 0.06 45 1007.6
20260507211506 63 25 6.1 11.3 0.00 0.06 0.06 43 1007.5
20260507211005 63 33 6.1 11.3 0.00 0.06 0.06 43 1007.6